Previsão horária em Caucel

Hoje, 25 Julho, Domingo

Tempo Temperatura Precipitação Vento Pressão Humidade
00:00 +26°C° 0 mm 1 m/s 760 mmHg 97%
01:00 +26°C° 0 mm 1 m/s 760 mmHg 97%
02:00 +26°C° 0 mm 1 m/s 760 mmHg 97%
03:00 +25°C° 0 mm 1 m/s 759 mmHg 97%
04:00 +25°C° 0 mm 1 m/s 759 mmHg 97%
05:00 +25°C° 0 mm 1 m/s 759 mmHg 96%
06:00 +25°C° 0 mm 1 m/s 760 mmHg 95%
07:00 +28°C° 0 mm 1 m/s 760 mmHg 84%
08:00 +30°C° 0 mm 1 m/s 760 mmHg 72%
09:00 +32°C° 0 mm 1 m/s 760 mmHg 60%
10:00 +34°C° 0 mm 1 m/s 760 mmHg 53%
11:00 +36°C° 0 mm 2 m/s 760 mmHg 47%
12:00 +38°C° 0 mm 3 m/s 759 mmHg 40%
13:00 +38°C° 0 mm 3 m/s 759 mmHg 40%
14:00 +37°C° 0 mm 4 m/s 758 mmHg 40%
15:00 +37°C° 0 mm 5 m/s 758 mmHg 40%
16:00 +36°C° 0 mm 4 m/s 757 mmHg 49%
17:00 +34°C° 0 mm 4 m/s 757 mmHg 57%
18:00 +32°C° 0 mm 4 m/s 757 mmHg 65%
19:00 +30°C° 0.1 mm 3 m/s 758 mmHg 74%
20:00 +28°C° 0.1 mm 2 m/s 758 mmHg 83%
21:00 +26°C° 0.1 mm 1 m/s 759 mmHg 91%
22:00 +26°C° 0.2 mm 1 m/s 759 mmHg 93%
23:00 +26°C° 0.2 mm 1 m/s 759 mmHg 95%

Amanhã, 26 Julho, Segunda-feira

Tempo Temperatura Precipitação Vento Pressão Humidade
00:00 +25°C° 0.2 mm 1 m/s 758 mmHg 96%
01:00 +25°C° 0 mm 1 m/s 758 mmHg 96%
02:00 +25°C° 0 mm 1 m/s 758 mmHg 96%
03:00 +25°C° 0 mm 1 m/s 757 mmHg 96%
04:00 +25°C° 0 mm 1 m/s 758 mmHg 96%
05:00 +25°C° 0 mm 1 m/s 758 mmHg 95%
06:00 +25°C° 0 mm 1 m/s 758 mmHg 95%
07:00 +27°C° 0 mm 1 m/s 758 mmHg 82%
08:00 +30°C° 0 mm 1 m/s 759 mmHg 70%
09:00 +32°C° 0 mm 1 m/s 759 mmHg 57%
10:00 +35°C° 0 mm 1 m/s 758 mmHg 50%
11:00 +37°C° 0 mm 1 m/s 758 mmHg 43%
12:00 +40°C° 0 mm 1 m/s 757 mmHg 35%
13:00 +39°C° 0 mm 2 m/s 757 mmHg 38%
14:00 +38°C° 0 mm 3 m/s 757 mmHg 40%
15:00 +37°C° 0 mm 4 m/s 756 mmHg 43%
16:00 +36°C° 0 mm 4 m/s 756 mmHg 49%
17:00 +34°C° 0 mm 4 m/s 757 mmHg 55%
18:00 +31°C° 0 mm 3 m/s 757 mmHg 62%
19:00 +30°C° 1.3 mm 3 m/s 758 mmHg 72%
20:00 +28°C° 1.3 mm 2 m/s 758 mmHg 83%
21:00 +26°C° 1.3 mm 2 m/s 759 mmHg 93%
22:00 +26°C° 0.1 mm 2 m/s 759 mmHg 94%
23:00 +25°C° 0.1 mm 2 m/s 759 mmHg 94%

Depois de amanhã, 27 Julho, Terça-feira

Tempo Temperatura Precipitação Vento Pressão Humidade
00:00 +25°C° 0.1 mm 2 m/s 759 mmHg 94%
01:00 +25°C° 0 mm 2 m/s 759 mmHg 95%
02:00 +25°C° 0 mm 2 m/s 758 mmHg 95%
03:00 +25°C° 0 mm 2 m/s 758 mmHg 96%
04:00 +25°C° 0 mm 2 m/s 758 mmHg 96%
05:00 +25°C° 0 mm 2 m/s 759 mmHg 96%
06:00 +25°C° 0 mm 2 m/s 759 mmHg 96%
07:00 +27°C° 0 mm 2 m/s 759 mmHg 83%
08:00 +30°C° 0 mm 2 m/s 759 mmHg 70%
09:00 +33°C° 0 mm 3 m/s 760 mmHg 57%
10:00 +35°C° 0 mm 3 m/s 759 mmHg 50%
11:00 +37°C° 0 mm 2 m/s 759 mmHg 43%
12:00 +39°C° 0 mm 2 m/s 759 mmHg 36%
13:00 +39°C° 0 mm 3 m/s 758 mmHg 38%
14:00 +38°C° 0 mm 3 m/s 758 mmHg 39%
15:00 +38°C° 0 mm 3 m/s 757 mmHg 41%
16:00 +36°C° 0 mm 4 m/s 757 mmHg 50%
17:00 +34°C° 0 mm 4 m/s 758 mmHg 59%
18:00 +32°C° 0 mm 4 m/s 758 mmHg 68%
19:00 +30°C° 0 mm 4 m/s 758 mmHg 71%
20:00 +30°C° 0 mm 4 m/s 759 mmHg 74%
21:00 +29°C° 0 mm 3 m/s 759 mmHg 76%
22:00 +28°C° 0 mm 3 m/s 759 mmHg 77%
23:00 +28°C° 0 mm 3 m/s 759 mmHg 78%

28 Julho, Quarta-feira

Tempo Temperatura Precipitação Vento Pressão Humidade
00:00 +27°C° 0 mm 2 m/s 759 mmHg 79%
01:00 +27°C° 0 mm 2 m/s 759 mmHg 82%
02:00 +26°C° 0 mm 2 m/s 759 mmHg 86%
03:00 +25°C° 0 mm 2 m/s 759 mmHg 89%
04:00 +25°C° 0 mm 2 m/s 759 mmHg 92%
05:00 +25°C° 0 mm 2 m/s 759 mmHg 94%
06:00 +25°C° 0 mm 1 m/s 760 mmHg 96%
07:00 +28°C° 0 mm 2 m/s 760 mmHg 83%
08:00 +30°C° 0 mm 2 m/s 760 mmHg 70%
09:00 +34°C° 0 mm 3 m/s 760 mmHg 57%
10:00 +35°C° 0.1 mm 3 m/s 760 mmHg 52%
11:00 +37°C° 0.1 mm 3 m/s 760 mmHg 48%
12:00 +38°C° 0.1 mm 3 m/s 759 mmHg 43%
13:00 +36°C° 1.1 mm 4 m/s 759 mmHg 54%
14:00 +34°C° 1.1 mm 4 m/s 758 mmHg 64%
15:00 +32°C° 1.1 mm 4 m/s 758 mmHg 75%
16:00 +29°C° 6.2 mm 4 m/s 758 mmHg 82%
17:00 +27°C° 6.2 mm 4 m/s 759 mmHg 89%
18:00 +25°C° 6.2 mm 4 m/s 759 mmHg 96%
19:00 +25°C° 1.5 mm 3 m/s 760 mmHg 96%
20:00 +25°C° 1.5 mm 2 m/s 760 mmHg 96%
21:00 +25°C° 1.5 mm 1 m/s 760 mmHg 96%
22:00 +25°C° 0.1 mm 2 m/s 760 mmHg 96%
23:00 +25°C° 0.1 mm 2 m/s 760 mmHg 96%

29 Julho, Quinta-feira

Tempo Temperatura Precipitação Vento Pressão Humidade
00:00 +25°C° 0.1 mm 2 m/s 760 mmHg 96%
01:00 +25°C° 0 mm 2 m/s 760 mmHg 96%
02:00 +25°C° 0 mm 2 m/s 759 mmHg 97%
03:00 +25°C° 0 mm 2 m/s 759 mmHg 97%
04:00 +25°C° 0 mm 1 m/s 759 mmHg 97%
05:00 +25°C° 0 mm 1 m/s 760 mmHg 97%
06:00 +25°C° 0 mm 1 m/s 760 mmHg 97%
07:00 +27°C° 0 mm 2 m/s 760 mmHg 86%
08:00 +30°C° 0 mm 2 m/s 760 mmHg 75%
09:00 +33°C° 0 mm 3 m/s 761 mmHg 64%
10:00 +34°C° 0 mm 3 m/s 760 mmHg 57%
11:00 +36°C° 0 mm 3 m/s 760 mmHg 50%
12:00 +38°C° 0 mm 3 m/s 760 mmHg 43%
13:00 +37°C° 0 mm 4 m/s 759 mmHg 46%
14:00 +36°C° 0 mm 4 m/s 759 mmHg 50%
15:00 +35°C° 0 mm 5 m/s 759 mmHg 54%
16:00 +34°C° 0.1 mm 5 m/s 759 mmHg 60%
17:00 +33°C° 0.1 mm 6 m/s 759 mmHg 66%
18:00 +30°C° 0.1 mm 6 m/s 759 mmHg 71%
19:00 +28°C° 0.5 mm 5 m/s 760 mmHg 77%
20:00 +26°C° 0.5 mm 3 m/s 760 mmHg 84%
21:00 +24°C° 0.5 mm 2 m/s 760 mmHg 90%
22:00 +24°C° 0 mm 2 m/s 760 mmHg 91%
23:00 +24°C° 0 mm 2 m/s 760 mmHg 92%

30 Julho, Sexta-feira

Tempo Temperatura Precipitação Vento Pressão Humidade
00:00 +25°C° 0 mm 2 m/s 760 mmHg 94%
01:00 +25°C° 0 mm 2 m/s 760 mmHg 95%
02:00 +25°C° 0 mm 2 m/s 760 mmHg 96%
03:00 +25°C° 0 mm 2 m/s 760 mmHg 97%
04:00 +25°C° 0 mm 1 m/s 760 mmHg 97%
05:00 +25°C° 0 mm 1 m/s 760 mmHg 97%
06:00 +25°C° 0 mm 1 m/s 761 mmHg 97%
07:00 +27°C° 0 mm 1 m/s 761 mmHg 86%
08:00 +30°C° 0 mm 2 m/s 761 mmHg 75%
09:00 +32°C° 0 mm 2 m/s 761 mmHg 64%
10:00 +35°C° 0 mm 2 m/s 761 mmHg 56%
11:00 +36°C° 0 mm 3 m/s 760 mmHg 49%
12:00 +38°C° 0 mm 3 m/s 760 mmHg 41%
13:00 +38°C° 0 mm 4 m/s 760 mmHg 42%
14:00 +39°C° 0 mm 5 m/s 759 mmHg 43%
15:00 +37°C° 0 mm 5 m/s 759 mmHg 44%
16:00 +36°C° 0 mm 5 m/s 759 mmHg 53%
17:00 +34°C° 0 mm 5 m/s 759 mmHg 61%
18:00 +32°C° 0 mm 5 m/s 760 mmHg 69%
19:00 +30°C° 0 mm 4 m/s 760 mmHg 72%
20:00 +29°C° 0 mm 4 m/s 760 mmHg 75%
21:00 +29°C° 0 mm 3 m/s 761 mmHg 77%
22:00 +28°C° 0 mm 3 m/s 761 mmHg 81%
23:00 +27°C° 0 mm 3 m/s 760 mmHg 84%
Mostrar mais

Necessitamos do seu Consentimento

A Meteoprog e os seus Fornecedores de Serviços podem armazenar e aceder a dados pessoais como cookies, identificadores do dispositivo ou outras tecnologias semelhantes existentes no seu dispositivo e processar estes dados para personalizar conteúdos e anúncios, assim como funcionalidades nas redes sociais e análise de tráfego.

  • Armazenar e/ou aceder a informações no seu dispositivo

    Os cookies, identificadores do dispositivo ou outras informações podem ser armazenados ou acedidos no seu dispositivo, para os fins acima indicados.

  • Anúncios e conteúdos personalizados, medição de anúncios e conteúdos, dados sobre o público-alvo e desenvolvimento de produtos

    Os anúncios e os conteúdos podem ser personalizados com base num perfil. Podem ser adicionados dados adicionais para uma maior personalização dos anúncios e dos conteúdos. A eficácia dos anúncios e dos conteúdos pode ser medida. Podem ser obtidas informações sobre o público que visualizou os anúncios e os conteúdos. Estes dados podem ser usados para desenvolver ou melhorar sistemas, softwares ou a experiência do utilizador.

Ao clicar em "Eu concordo”, permitirá o uso de cookies, identificadores do dispositivo e web beacons mencionados ou outras tecnologias semelhantes. As configurações do navegador do seu dispositivo podem ser alteradas.

Para certos fins, podem ser invocados interesses legítimos ao invés de consentimento. Pode ler mais informação sobre este assunto na nossa Política de Privacidade e Cookies.